Home > Weather > Venice > Past weeks

Flag for Italy Past Weather in Venice, Italy — Yesterday and Last 2 Weeks

Now
79 °F

Sunny.


Feels Like: 81 °F
Forecast: 72 / 84 °F
Wind: 6 mph from Southeast

Location: Venice / Tessera

Current Time: Jul 1, 2016 at 9:04:54 PM

Latest Report: Jul 1, 2016 at 8:20 PM


Visibility: 10 mi

Pressure: 29.98 "Hg

Humidity: 65%

Dew Point: 66 °F

Location of VeniceLocation

Past Weather in Venice — Graph

°F

Venice Temperature Yesterday

Maximum temperature yesterday: 84 °F (at 3:50 PM)
Minimum temperature yesterday: 70 °F (at 2:50 AM)
Average temperature yesterday: 77 °F

High & Low Weather Summary for the Past Weeks

 TemperatureHumidityPressure
High90 °F (Jun 23, 2:20 PM)94% (Jun 17, 12:50 AM)30.18 "Hg (Jun 17, 12:50 AM)
Low59 °F (Jun 18, 5:20 AM)32% (Jun 28, 1:20 PM)29.59 "Hg (Jun 16, 8:20 PM)
Average76 °F63%29.98 "Hg
* Reported Jun 16 7:20 PM — Jul 1 7:50 PM, Venice, Weather by CustomWeather, © 2016

Note: Actual official high and low records may vary slightly from our data, if they occured in-between our weather recording intervals... More about our weather records

Advertising

Venice Weather History for the Previous 24 Hours

Scroll right to see more
 ConditionsComfort  
Time TempWeatherWind HumidityBarometerVisibility
7:50 PM
Fri, Jul 1
81 °FSunny.6 mph58%29.98 "Hg10 mi
7:20 PM82 °FPassing clouds.6 mph48%29.98 "HgN/A
6:50 PM84 °FPassing clouds.6 mph45%29.98 "HgN/A
6:20 PM82 °FSunny.7 mph55%29.98 "Hg10 mi
5:50 PM84 °FSunny.8 mph48%29.98 "Hg10 mi
5:20 PM82 °FSunny.9 mph55%30.01 "Hg10 mi
4:50 PM82 °FPassing clouds.7 mph55%30.01 "HgN/A
4:20 PM84 °FSunny.7 mph51%30.01 "Hg10 mi
3:50 PM82 °FSunny.8 mph55%30.01 "Hg10 mi
3:20 PM82 °FSunny.8 mph55%30.01 "Hg10 mi
2:50 PM82 °FPassing clouds.8 mph55%30.01 "HgN/A
2:20 PM82 °FPassing clouds.7 mph55%30.04 "HgN/A
1:50 PM82 °FPassing clouds.7 mph51%30.04 "HgN/A
1:20 PM82 °FPassing clouds.7 mph48%30.04 "HgN/A
12:50 PM82 °FPassing clouds.7 mph48%30.04 "HgN/A
12:20 PM82 °FPassing clouds.3 mph45%30.04 "HgN/A
11:50 AM81 °FPassing clouds.6 mph48%30.04 "HgN/A
11:20 AM79 °FPassing clouds.6 mph58%30.04 "HgN/A
10:50 AM79 °FPassing clouds.5 mph58%30.04 "HgN/A
10:20 AM77 °FPassing clouds.5 mph57%30.04 "HgN/A
9:50 AM77 °FPassing clouds.6 mph61%30.04 "HgN/A
9:20 AM75 °FPassing clouds.6 mph65%30.04 "HgN/A
8:50 AM75 °FSunny.7 mph61%30.04 "Hg10 mi
8:20 AM73 °FPassing clouds.8 mph69%30.04 "HgN/A
7:50 AM72 °FPassing clouds.7 mph73%30.04 "HgN/A
7:20 AM72 °FSunny.7 mph73%30.01 "Hg10 mi
6:50 AM70 °FPassing clouds.8 mph83%30.01 "HgN/A
6:20 AM68 °FClear.7 mph88%30.01 "Hg10 mi
5:50 AM68 °FPassing clouds.7 mph88%30.01 "HgN/A
5:20 AM70 °FClear.9 mph78%30.01 "Hg10 mi
4:50 AM70 °FClear.9 mph78%30.01 "Hg10 mi
4:20 AM70 °FPassing clouds.12 mph78%30.01 "HgN/A
3:50 AM72 °FPassing clouds.12 mph73%30.01 "HgN/A
3:20 AM72 °FPassing clouds.15 mph73%30.01 "HgN/A
2:50 AM72 °FPassing clouds.13 mph78%30.01 "HgN/A
2:20 AM72 °FThundershowers. Passing clouds.15 mph73%30.01 "HgN/A
1:50 AM75 °FThundershowers. Partly cloudy.15 mph65%30.01 "HgN/A
1:20 AM75 °FThundershowers. Partly cloudy.13 mph69%29.98 "HgN/A
12:50 AM77 °FThundershowers. Passing clouds.12 mph74%29.98 "HgN/A
12:20 AM77 °FThundershowers. Passing clouds.9 mph74%29.98 "HgN/A
11:50 PM
Thu, Jun 30
77 °FThundershowers. Passing clouds.9 mph65%29.98 "HgN/A
11:20 PM79 °FPassing clouds.9 mph70%29.98 "HgN/A
10:50 PM79 °FPassing clouds.3 mph74%29.98 "HgN/A
10:20 PM79 °FPassing clouds.9 mph74%29.98 "HgN/A
9:50 PM79 °FPassing clouds.9 mph70%29.95 "HgN/A
9:20 PM79 °FPassing clouds.8 mph61%29.95 "HgN/A
Weather by CustomWeather, © 2016

See weather overviewHow to use our weather pages